STARLINK-4021

operational
NORAD ID: 53149 Int'l Des: 2022-083 Owner: SPXS Country: US Constellation: starlink
LEOCIRCULAR

About STARLINK-4021

Description loading...

Live Position

Loading 3D Globe...

Upcoming Passes

Altitude History

Altitude vs Time

uPlot chart will show altitude changes over time

Two-Line Element Set

1 53149U 22083T 25251.29925679 .00001589 00000-0 11791-3 0 9996
2 53149 53.2162 263.1101 0001257 90.5324 269.5812 15.08847576173820
Epoch: Sep 8, 2025 • Age: 20 hours

Current Status

Altitude 546.4 km
Velocity 7.59 km/s
Sub-Earth Point -22.28°S, 61.02°E
Launch Date Jul 17, 2022
Age 3.1 years
Type internet

Technical Details

Classification Payload
Mass 297.00 kg
Dry Mass 275.00 kg
Total Mass 297.00 kg
Length 0.20 m
Diameter 2.80 m
Span 9.00 m
Shape Box + pan
Manufacturer SPXS
Bus Type Starlink
Phase Status In Orbit
Owner/State SPXS/US

Large Constellations

Loading constellations...